HST 1 20580U 90037B 26208.10248366 .00006351 00000+0 19736-3 0 9995 2 20580 28.4721 167.6751 0001683 226.7960 133.2495 15.31168988794696 POLAR 1 23802U 96013A 26207.31917644 .00000250 00000+0 00000+0 0 9991 2 23802 79.9084 226.5863 6509760 207.7347 92.4668 1.29845968145365 SWAS 1 25560U 98071A 26208.16712434 .00004162 00000+0 26313-3 0 9999 2 25560 69.8963 124.4040 0007218 216.3741 143.6934 15.09821485503302 CXO 1 25867U 99040B 26209.04610948 .00000804 00000+0 00000+0 0 9991 2 25867 56.7072 115.6151 7770389 309.8621 0.6215 0.37793771 17474 XMM-NEWTON 1 25989U 99066A 26207.24358605 .00000084 00000+0 00000+0 0 9993 2 25989 64.2780 282.4824 4663641 64.1910 0.0496 0.50127282 23206 TERRA 1 25994U 99068A 26208.64456914 .00000428 00000+0 95958-4 0 9991 2 25994 97.9434 256.5818 0003689 98.5706 54.0471 14.61132243415517 CLUSTER II-FM7 (SAMBA) 1 26410U 00041A 26210.52279047 .00352008 -22063-2 00000+0 0 9998 2 26410 149.7392 58.3982 9102788 276.1165 359.5034 0.44849420 20497 CLUSTER II-FM8 (TANGO) 1 26464U 00045B 26206.70608471 .00032288 -22052-4 00000+0 0 9998 2 26464 149.9554 58.9182 9102440 276.4455 1.9644 0.44435174 20487 ODIN 1 26702U 01007A 26208.54410598 .00810873 32128-3 14133-2 0 9999 2 26702 97.3672 252.6554 0007658 185.3953 174.7245 16.02196348395795 TIMED 1 26998U 01055B 26208.21706486 .00001313 00000+0 12247-3 0 9993 2 26998 74.0680 154.4151 0002432 286.5902 73.5016 14.95368480336805 CORIOLIS 1 27640U 03001A 26208.00979651 .00000111 00000+0 72555-4 0 9998 2 27640 98.7141 214.2887 0015205 97.6752 262.6152 14.19954670219879 SORCE 1 27651U 03004A 26208.58298791 .00003075 00000+0 22937-3 0 9995 2 27651 39.9919 31.1680 0018001 337.8126 22.1888 15.03900126277981 MOST 1 27843U 03031D 26208.47814428 .00000076 00000+0 54640-4 0 9992 2 27843 98.7058 215.6435 0010705 131.7227 228.4867 14.21329855196435 SCISAT 1 1 27858U 03036A 26208.13507142 .00000685 00000+0 92067-4 0 9999 2 27858 73.9297 91.9714 0006764 156.3225 203.8264 14.81491416237362 SWIFT 1 28485U 04047A 26208.33397340 .00065372 00000+0 45804-3 0 9998 2 28485 20.5506 234.2931 0002434 157.4379 202.6175 15.72430132193183 HINODE (SOLAR-B) 1 29479U 06041A 26208.51880186 .00000754 00000+0 13775-3 0 9998 2 29479 98.0550 224.0774 0018076 155.8031 204.4027 14.68672286 60792 SHIJIAN-6 02A (SJ-6 02A) 1 29505U 06046A 26208.58756041 .00008856 00000+0 44663-3 0 9993 2 29505 97.6344 249.9633 0003322 32.3156 327.8280 15.17374166 78390 SHIJIAN-6 02B (SJ-6 02B) 1 29506U 06046B 26208.59993913 .00000973 00000+0 79947-4 0 9992 2 29506 97.7140 237.4065 0012290 289.9376 70.0523 15.01456998 76803 FGRST (GLAST) 1 33053U 08029A 26208.56075739 .00003407 00000+0 12255-3 0 9994 2 33053 25.5826 284.1111 0008553 83.9420 276.2092 15.24135319 1855 SDO 1 36395U 10005A 26208.23533044 -.00000095 00000+0 00000+0 0 9997 2 36395 34.7311 85.7337 0001487 51.6826 150.1536 1.00277564 60467 CRYOSAT 2 1 36508U 10013A 26208.60657384 .00000104 00000+0 25061-4 0 9996 2 36508 92.0351 287.1274 0002590 98.1001 262.0500 14.51900797863948 X-SAT 1 37389U 11015C 26208.59348122 -.00000125 00000+0 -35675-4 0 9999 2 37389 98.3537 183.6981 0013013 220.9883 139.0321 14.25216253793439 GCOM-W1 (SHIZUKU) 1 38337U 12025A 26207.79245751 .00000480 00000+0 11659-3 0 9997 2 38337 98.2025 147.7490 0001248 81.7688 339.8031 14.57099100754804 NUSTAR 1 38358U 12031A 26208.66670139 .00008732 00000+0 48054-3 0 9993 2 38358 6.0265 90.4093 0008338 343.7440 284.0595 15.09142805 1302 NEOSSAT 1 39089U 13009D 26208.48816124 .00000169 00000+0 73145-4 0 9993 2 39089 98.4197 27.5670 0012037 123.1860 237.0482 14.35839389702525 BRITE-AUSTRIA 1 39091U 13009F 26208.32740846 .00000194 00000+0 80413-4 0 9990 2 39091 98.4015 26.7744 0011291 117.4603 242.7733 14.36556736702819 IRIS 1 39197U 13033A 26208.09721258 .00001152 00000+0 13773-3 0 9993 2 39197 97.9314 47.2484 0024195 185.0046 175.0931 14.85958240706306 HISAKI (SPRINT-A) 1 39253U 13049A 26208.48808327 .00000098 00000+0 47108-4 0 9997 2 39253 29.7219 15.1166 0136865 343.4735 16.1406 13.55547439636898 CASSIOPE 1 39265U 13055A 26208.59717926 .00020068 -45002-6 21457-3 0 9999 2 39265 80.9134 17.5175 0280808 285.7473 71.2956 15.27887860673839 STSAT-3 1 39422U 13066G 26208.59440694 .00002465 00000+0 18778-3 0 9995 2 39422 97.6234 177.8338 0008567 255.2694 104.7582 15.02959369690279 SWARM B 1 39451U 13067A 26208.58929262 .00003740 00000+0 13251-3 0 9998 2 39451 87.7471 330.0457 0002254 95.6179 264.5327 15.28789333689416 SWARM A 1 39452U 13067B 26208.60627698 .00009958 00000+0 17584-3 0 9990 2 39452 87.3292 41.2111 0002628 74.1683 285.9868 15.50197334712513 SWARM C 1 39453U 13067C 26208.60579181 .00009938 00000+0 17703-3 0 9995 2 39453 87.3294 39.7918 0003167 87.5927 272.5697 15.49944510712472 BRITE-CA1 (TORONTO) 1 40020U 14033L 26208.60006159 .00001275 00000+0 19797-3 0 9992 2 40020 97.9785 336.7942 0079349 146.7382 213.8850 14.72746897648167 OCO 2 1 40059U 14035A 26208.60143391 .00000427 00000+0 10475-3 0 9998 2 40059 98.2023 149.2815 0001367 80.5727 279.5626 14.57140920641933 BRITE-PL2 (HEWELIUSZ) 1 40119U 14049B 26208.27302823 .00002086 00000+0 19735-3 0 9991 2 40119 97.9127 320.5915 0013340 342.5276 17.5483 14.94723481647432 MMS 1 1 40482U 15011A 26208.66670139 -.00001782 00000+0 00000+0 0 9999 2 40482 72.5718 348.3073 8296913 168.2369 107.8800 0.28358372 1396 MMS 2 1 40483U 15011B 26208.66670139 -.00001784 00000+0 00000+0 0 9992 2 40483 72.5759 348.3063 8299732 168.2394 107.8653 0.28358326 1396 MMS 3 1 40484U 15011C 26208.66670139 -.00001782 00000+0 00000+0 0 9991 2 40484 72.5759 348.3181 8298093 168.2473 107.8395 0.28358302 1369 MMS 4 1 40485U 15011D 26208.66670139 -.00001783 00000+0 00000+0 0 9993 2 40485 72.5709 348.3017 8298066 168.2572 107.8360 0.28358356 1397 ASTROSAT 1 40930U 15052A 26208.52193738 .00001727 00000+0 12806-3 0 9991 2 40930 5.9957 225.0135 0008409 253.0295 106.8912 14.82570844585826 DAMPE 1 41173U 15078A 26208.56451617 .00000917 00000+0 33317-4 0 9997 2 41173 97.4572 214.2345 0010377 297.8331 62.1858 15.30879222590726 PISAT 1 41784U 16059B 26208.46752890 .00001159 00000+0 20411-3 0 9990 2 41784 97.8200 207.1940 0030533 77.5069 282.9551 14.69050704525654 HXMT (HUIYAN) 1 42758U 17034A 26208.65013417 .00005721 00000+0 27814-3 0 9995 2 42758 43.0159 317.6819 0030495 39.8328 320.4752 15.18794958503816 FLYING LAPTOP 1 42831U 17042G 26208.64338344 .00003171 00000+0 24963-3 0 9993 2 42831 97.4857 2.6700 0018854 352.6602 7.4344 15.01378026492522 ZHANGHENG 1-01 (CSES-1) 1 43194U 18015C 26208.60364388 .00007655 00000+0 34957-3 0 9995 2 43194 97.6897 15.0702 0017133 124.1431 236.1431 15.20753939470785 SALSAT 1 46495U 20068K 26207.97313825 .00007917 00000+0 27242-3 0 9992 2 46495 97.8862 213.4781 0010474 153.1467 207.0317 15.30316182321443 IXPE 1 49954U 21121A 26208.66670139 .00011193 00000+0 60263-3 0 9998 2 49954 0.2310 11.1644 0006994 334.5460 20.2111 15.10588335 5482 SMILE 1 69123U 26109A 26194.95939329 .00000936 00000+0 00000+0 0 9996 2 69123 70.0512 206.6048 8313707 286.9544 0.1879 0.47500629 65